EW3708 Weather Reports


time (UTC)temp
C
wind
direction
speed
KPH
gust
KPH
rain 1hr
cm
rain 24hr
cm
rain mn
cm
humidity
%
barometer
mb
20260831193050 20 198 0.0 1.6 0.05 0.13 0.10 90 1018.1
20260831191548 20 198 0.0 1.6 0.03 0.10 0.08 89 1018.3
20260831190057 20 198 0.0 1.6 0.05 0.10 0.08 90 1018.7
20260831184545 19 202 0.0 3.2 0.08 0.10 0.08 90 1018.7
20260831183045 19 204 0.0 0.0 0.05 0.08 0.05 89 1018.9
20260831181554 19 204 0.0 0.0 0.05 0.08 0.05 87 1019.1
20260831180044 20 204 0.0 3.2 0.03 0.05 0.03 86 1019.1
20260831174550 20 182 1.6 3.2 0.00 0.03 0.00 83 1019.2
20260831173043 20 182 0.0 4.8 0.00 0.03 0.00 81 1019.2
20260831171544 20 182 0.0 3.2 0.00 0.03 0.00 80 1019.1
20260831170042 20 182 0.0 3.2 0.00 0.03 0.00 79 1019.1
20260831164541 20 182 1.6 4.8 0.00 0.03 0.00 80 1019.2
20260831163043 20 182 0.0 1.6 0.00 0.03 0.00 79 1019.2
20260831161540 21 182 0.0 4.8 0.00 0.03 0.00 76 1019.1
20260831160100 21 173 1.6 4.8 0.00 0.03 0.00 76 1019.1
20260831154552 21 167 1.6 8.0 0.00 0.03 0.00 75 1019.2
20260831153124 21 171 3.2 8.0 0.00 0.03 0.00 77 1019.2
20260831151548 20 145 0.0 4.8 0.00 0.03 0.00 80 1019.2
20260831150046 20 144 0.0 3.2 0.00 0.03 0.00 80 1019.1
20260831144542 20 143 1.6 3.2 0.00 0.03 0.00 83 1019.2
20260831143040 19 49 0.0 3.2 0.00 0.03 0.00 86 1019.2
20260831141543 19 49 0.0 1.6 0.00 0.03 0.00 87 1019.4
20260831140037 18 49 0.0 1.6 0.00 0.03 0.00 86 1019.4
20260831134533 18 49 0.0 0.0 0.00 0.03 0.00 89 1019.2
20260831133033 18 49 0.0 0.0 0.00 0.03 0.00 90 1019.3
20260831131533 18 49 0.0 0.0 0.00 0.03 0.00 92 1019.3
20260831130040 17 49 0.0 0.0 0.00 0.03 0.00 92 1019.1
20260831124529 17 49 0.0 0.0 0.00 0.03 0.00 93 1019.2
20260831123041 17 49 0.0 0.0 0.00 0.03 0.00 94 1019.2
20260831121536 17 46 0.0 0.0 0.00 0.03 0.00 94 1019.3
20260831120053 17 46 0.0 0.0 0.00 0.03 0.00 94 1019.2
20260831114532 17 46 0.0 0.0 0.00 0.03 0.00 94 1019.3
20260831113026 17 44 0.0 0.0 0.00 0.03 0.00 94 1019.1
20260831111525 17 44 0.0 0.0 0.00 0.03 0.00 94 1019.1
20260831110023 17 44 0.0 0.0 0.00 0.03 0.00 93 1018.9
20260831104535 17 44 0.0 0.0 0.00 0.03 0.00 93 1018.8
20260831103021 17 44 0.0 0.0 0.00 0.03 0.00 93 1018.5
20260831101524 17 44 0.0 0.0 0.00 0.03 0.00 93 1018.5
20260831100026 17 44 0.0 0.0 0.00 0.03 0.00 93 1018.3
20260831094520 17 44 0.0 0.0 0.00 0.03 0.00 93 1018.6
20260831093019 17 44 0.0 0.0 0.00 0.03 0.00 93 1018.6
20260831091522 17 44 0.0 0.0 0.00 0.03 0.00 93 1018.6
20260831090018 17 44 0.0 0.0 0.00 0.03 0.00 93 1018.4
20260831084517 17 44 0.0 0.0 0.00 0.03 0.00 93 1018.4
20260831083016 17 44 0.0 0.0 0.00 0.03 0.00 93 1018.2
20260831081530 17 44 0.0 0.0 0.00 0.03 0.00 93 1018.5
20260831080013 17 44 0.0 0.0 0.00 0.03 0.00 93 1018.4
20260831074517 17 44 0.0 0.0 0.00 0.03 0.00 93 1018.5
20260831073011 17 44 0.0 0.0 0.00 0.03 0.00 93 1018.5
20260831071510 17 44 0.0 0.0 0.00 0.03 0.00 93 1018.6
20260831070020 17 44 0.0 0.0 0.00 0.03 0.00 93 1018.6
20260831064509 17 44 0.0 0.0 0.00 0.03 0.00 93 1018.5
20260831063007 17 44 0.0 0.0 0.00 0.03 0.00 93 1018.6
20260831061507 17 44 0.0 0.0 0.00 0.03 0.00 93 1018.8
20260831060006 17 44 0.0 0.0 0.00 0.03 0.00 93 1018.6
20260831054504 17 44 0.0 0.0 0.00 0.03 0.00 93 1018.7
20260831053004 17 44 0.0 0.0 0.00 0.03 0.00 93 1018.7
20260831051502 17 44 0.0 0.0 0.00 0.03 0.00 93 1018.8
20260831050002 17 44 0.0 0.0 0.00 0.03 0.00 92 1018.9
20260831044604 17 44 0.0 0.0 0.00 0.03 0.00 92 1019.1
20260831043059 18 44 0.0 0.0 0.00 0.03 0.00 93 1019.0
20260831041557 18 44 0.0 0.0 0.00 0.03 0.00 92 1018.9
20260831040056 18 44 0.0 0.0 0.00 0.03 0.00 92 1018.9
20260831034554 18 44 0.0 0.0 0.00 0.03 0.03 92 1019.1
20260831033101 18 44 0.0 0.0 0.00 0.03 0.03 92 1019.1
20260831031553 18 44 0.0 0.0 0.00 0.03 0.03 92 1019.1
20260831030053 18 44 0.0 0.0 0.00 0.03 0.03 92 1019.2
20260831024604 18 44 0.0 0.0 0.00 0.03 0.03 92 1019.2
20260831023051 18 44 0.0 0.0 0.00 0.03 0.03 92 1019.2
20260831021558 18 44 0.0 0.0 0.00 0.03 0.03 92 1019.2
20260831020053 18 44 0.0 0.0 0.00 0.03 0.03 91 1019.3
20260831014550 19 44 0.0 0.0 0.00 0.03 0.03 91 1019.3
20260831013050 19 44 0.0 0.0 0.00 0.03 0.03 91 1019.3
20260831011551 19 44 0.0 0.0 0.00 0.03 0.03 90 1019.2
20260831010121 20 44 0.0 0.0 0.00 0.03 0.03 90 1019.1
20260831004551 20 44 0.0 0.0 0.03 0.03 0.03 89 1018.7
20260831003047 20 44 0.0 0.0 0.03 0.03 0.03 89 1018.5
20260831001558 20 44 0.0 0.0 0.03 0.03 0.03 88 1018.6
20260831000047 20 44 0.0 1.6 0.03 0.03 0.03 86 1018.5
20260830234546 21 44 0.0 1.6 0.00 0.00 0.00 84 1018.3
20260830233046 21 44 0.0 1.6 0.00 0.00 0.00 82 1018.0
20260830231546 21 44 0.0 1.6 0.00 0.00 0.00 82 1017.9
20260830230050 21 159 0.0 3.2 0.00 0.00 0.00 81 1017.8
20260830224551 21 159 0.0 1.6 0.00 0.00 0.00 80 1018.0
20260830223044 22 159 0.0 3.2 0.00 0.00 0.00 80 1018.0
20260830221544 22 159 0.0 1.6 0.00 0.00 0.00 80 1018.1
20260830220047 22 159 0.0 1.6 0.00 0.00 0.00 80 1018.1
20260830214544 22 159 0.0 1.6 0.00 0.00 0.00 79 1017.9
20260830213040 22 159 0.0 0.0 0.00 0.00 0.00 79 1017.9
20260830211540 22 159 0.0 3.2 0.00 0.00 0.00 78 1017.7
20260830210039 22 161 0.0 1.6 0.00 0.00 0.00 78 1017.8
20260830204539 23 161 0.0 3.2 0.00 0.00 0.00 76 1017.9
20260830203037 23 136 0.0 3.2 0.00 0.00 0.00 76 1017.8
20260830201535 23 132 0.0 4.8 0.00 0.00 0.00 74 1018.0
20260830200034 23 246 0.0 4.8 0.00 0.00 0.00 73 1018.1
20260830194535 23 323 0.0 4.8 0.00 0.00 0.00 72 1018.2